Year,Month,Day,Hour,Minute,Value (Times are PST for temperature in C)
2008,11,24,00,00,0.80
2008,11,24,00,01,0.80
2008,11,24,00,02,0.80
2008,11,24,00,03,0.80
2008,11,24,00,04,0.80
2008,11,24,00,05,0.70
2008,11,24,00,06,0.70
2008,11,24,00,07,0.70
2008,11,24,00,08,0.70
2008,11,24,00,09,0.70
2008,11,24,00,10,0.70
2008,11,24,00,11,0.70
2008,11,24,00,12,0.60
2008,11,24,00,13,0.60
2008,11,24,01,02,0.50
2008,11,24,01,03,0.50
2008,11,24,01,04,0.50
2008,11,24,01,05,0.50
2008,11,24,01,06,0.50
2008,11,24,01,07,0.50
2008,11,24,01,08,0.50
2008,11,24,01,09,0.50
2008,11,24,01,10,0.60
2008,11,24,01,11,0.60
2008,11,24,01,12,0.60
2008,11,24,01,13,0.60
2008,11,24,01,14,0.60
2008,11,24,01,15,0.60
2008,11,24,01,16,0.70
2008,11,24,01,17,0.70
2008,11,24,01,18,0.70
2008,11,24,01,19,0.70
2008,11,24,01,20,0.70
2008,11,24,01,21,0.80
2008,11,24,01,22,0.80
2008,11,24,01,23,0.80
2008,11,24,01,24,0.80
2008,11,24,01,25,0.80
2008,11,24,01,26,0.80
2008,11,24,01,27,0.90
2008,11,24,01,28,0.90
2008,11,24,01,29,0.90
2008,11,24,01,30,0.90
2008,11,24,01,31,0.90
2008,11,24,01,32,1.00
2008,11,24,01,33,1.00
2008,11,24,01,34,1.00
2008,11,24,01,35,1.00
2008,11,24,01,36,1.00
2008,11,24,01,37,1.00
2008,11,24,01,38,1.00
2008,11,24,01,39,1.00
2008,11,24,01,40,1.00
2008,11,24,01,41,1.00
2008,11,24,01,42,1.10
2008,11,24,01,43,1.10
2008,11,24,01,44,1.10
2008,11,24,01,45,1.10
2008,11,24,01,46,1.10
2008,11,24,01,47,1.10
2008,11,24,01,48,1.10
2008,11,24,01,49,1.10
2008,11,24,01,50,1.00
2008,11,24,01,51,1.00
2008,11,24,01,52,1.00
2008,11,24,01,53,1.00
2008,11,24,01,54,1.00
2008,11,24,01,55,1.00
2008,11,24,01,56,1.00
2008,11,24,01,57,1.00
2008,11,24,01,58,1.00
2008,11,24,01,59,1.00
2008,11,24,02,00,1.00
2008,11,24,02,01,1.00
2008,11,24,02,02,1.00
2008,11,24,02,03,1.00
2008,11,24,02,04,1.00
2008,11,24,02,05,1.00
2008,11,24,02,06,1.00
2008,11,24,02,07,1.10
2008,11,24,02,08,1.10
2008,11,24,02,09,1.10
2008,11,24,02,10,1.10
2008,11,24,02,11,1.20
2008,11,24,02,12,1.20
2008,11,24,02,13,1.20
2008,11,24,02,14,1.20
2008,11,24,02,15,1.20
2008,11,24,02,16,1.30
2008,11,24,02,17,1.30
2008,11,24,02,18,1.30
2008,11,24,02,19,1.30
2008,11,24,02,20,1.30
2008,11,24,02,21,1.30
2008,11,24,02,22,1.30
2008,11,24,02,23,1.30
2008,11,24,02,24,1.30
2008,11,24,02,25,1.30
2008,11,24,02,26,1.30
2008,11,24,02,27,1.30
2008,11,24,02,28,1.30
2008,11,24,02,29,1.30
2008,11,24,02,30,1.30
2008,11,24,02,31,1.40
2008,11,24,02,32,1.40
2008,11,24,02,33,1.40
2008,11,24,02,34,1.40
2008,11,24,02,35,1.40
2008,11,24,02,36,1.50
2008,11,24,02,37,1.50
2008,11,24,02,38,1.50
2008,11,24,02,39,1.50
2008,11,24,02,40,1.50
2008,11,24,02,41,1.50
2008,11,24,02,42,1.50
2008,11,24,02,43,1.50
2008,11,24,02,44,1.40
2008,11,24,02,45,1.40
2008,11,24,02,46,1.40
2008,11,24,02,47,1.40
2008,11,24,02,48,1.40
2008,11,24,02,49,1.40
2008,11,24,02,50,1.30
2008,11,24,02,51,1.30
2008,11,24,02,52,1.30
2008,11,24,02,53,1.30
2008,11,24,02,54,1.30
2008,11,24,02,55,1.30
2008,11,24,02,56,1.30
2008,11,24,02,57,1.30
2008,11,24,02,58,1.30
2008,11,24,02,59,1.20
2008,11,24,03,00,1.20
2008,11,24,03,01,1.20
2008,11,24,03,02,1.10
2008,11,24,03,03,1.10
2008,11,24,03,04,1.10
2008,11,24,03,05,1.10
2008,11,24,03,06,1.00
2008,11,24,03,07,1.00
2008,11,24,03,08,1.00
2008,11,24,03,09,1.00
2008,11,24,03,10,1.00
2008,11,24,03,11,1.00
2008,11,24,03,12,0.90
2008,11,24,03,13,0.90
2008,11,24,03,14,0.90
2008,11,24,03,15,0.90
2008,11,24,03,16,0.90
2008,11,24,03,17,0.90
2008,11,24,03,18,0.80
2008,11,24,03,19,0.80
2008,11,24,03,20,0.80
2008,11,24,03,21,0.80
2008,11,24,03,22,0.80
2008,11,24,03,23,0.80
2008,11,24,03,24,0.80
2008,11,24,03,25,0.80
2008,11,24,03,26,0.70
2008,11,24,03,27,0.70
2008,11,24,03,28,0.70
2008,11,24,03,29,0.70
2008,11,24,03,30,0.70
2008,11,24,03,31,0.70
2008,11,24,03,32,0.70
2008,11,24,03,33,0.70
2008,11,24,03,34,0.70
2008,11,24,03,35,0.70
2008,11,24,03,36,0.70
2008,11,24,03,37,0.70
2008,11,24,03,38,0.70
2008,11,24,03,39,0.70
2008,11,24,03,40,0.70
2008,11,24,03,41,0.80
2008,11,24,03,42,0.80
2008,11,24,03,43,0.80
2008,11,24,03,44,0.80
2008,11,24,03,45,0.80
2008,11,24,03,46,0.80
2008,11,24,03,47,0.80
2008,11,24,03,48,0.80
2008,11,24,03,49,0.80
2008,11,24,03,50,0.80
2008,11,24,03,51,0.80
2008,11,24,03,52,0.80
2008,11,24,03,53,0.80
2008,11,24,03,54,0.80
2008,11,24,03,55,0.80
2008,11,24,03,56,0.80
2008,11,24,03,57,0.80
2008,11,24,03,58,0.80
2008,11,24,03,59,0.80
2008,11,24,04,00,0.80
2008,11,24,04,01,0.80
2008,11,24,04,02,0.80
2008,11,24,04,03,0.80
2008,11,24,04,04,0.80
2008,11,24,04,05,0.80
2008,11,24,04,06,0.90
2008,11,24,04,07,0.90
2008,11,24,04,08,0.90
2008,11,24,04,09,0.90
2008,11,24,04,10,0.90
2008,11,24,04,11,1.00
2008,11,24,04,12,1.00
2008,11,24,04,13,1.10
2008,11,24,04,14,1.10
2008,11,24,04,15,1.10
2008,11,24,04,16,1.10
2008,11,24,04,17,1.10
2008,11,24,04,18,1.10
2008,11,24,04,19,1.20
2008,11,24,04,20,1.20
2008,11,24,04,21,1.20
2008,11,24,04,22,1.30
2008,11,24,04,23,1.30
2008,11,24,04,24,1.30
2008,11,24,04,25,1.30
2008,11,24,04,26,1.40
2008,11,24,04,27,1.40
2008,11,24,04,28,1.50
2008,11,24,04,29,1.50
2008,11,24,04,30,1.50
2008,11,24,04,31,1.50
2008,11,24,04,32,1.60
2008,11,24,04,33,1.60
2008,11,24,04,34,1.60
2008,11,24,04,35,1.70
2008,11,24,04,36,1.70
2008,11,24,04,37,1.70
2008,11,24,04,38,1.70
2008,11,24,04,39,1.70
2008,11,24,04,40,1.70
2008,11,24,04,41,1.80
2008,11,24,04,42,1.80
2008,11,24,04,43,1.80
2008,11,24,04,44,1.90
2008,11,24,04,45,1.90
2008,11,24,04,46,2.00
2008,11,24,04,47,2.00
2008,11,24,04,48,2.10
2008,11,24,04,49,2.10
2008,11,24,04,50,2.10
2008,11,24,04,51,2.20
2008,11,24,04,52,2.20
2008,11,24,04,53,2.20
2008,11,24,04,54,2.30
2008,11,24,04,55,2.30
2008,11,24,04,56,2.30
2008,11,24,04,57,2.30
2008,11,24,04,58,2.30
2008,11,24,04,59,2.30
2008,11,24,05,00,2.30
2008,11,24,05,01,2.40
2008,11,24,05,02,2.40
2008,11,24,05,03,2.40
2008,11,24,05,04,2.40
2008,11,24,05,05,2.40
2008,11,24,05,06,2.40
2008,11,24,05,07,2.40
2008,11,24,05,08,2.40
2008,11,24,05,09,2.50
2008,11,24,05,10,2.50
2008,11,24,05,11,2.50
2008,11,24,05,12,2.60
2008,11,24,05,13,2.60
2008,11,24,05,14,2.60
2008,11,24,05,15,2.60
2008,11,24,05,16,2.60
2008,11,24,05,17,2.60
2008,11,24,05,18,2.70
2008,11,24,05,19,2.70
2008,11,24,05,20,2.70
2008,11,24,05,21,2.70
2008,11,24,05,22,2.70
2008,11,24,05,23,2.70
2008,11,24,05,24,2.70
2008,11,24,05,25,2.70
2008,11,24,05,26,2.70
2008,11,24,05,27,2.70
2008,11,24,05,28,2.70
2008,11,24,05,29,2.70
2008,11,24,05,30,2.70
2008,11,24,05,31,2.70
2008,11,24,05,32,2.70
2008,11,24,05,33,2.80
2008,11,24,05,34,2.80
2008,11,24,05,35,2.80
2008,11,24,05,36,2.90
2008,11,24,05,37,2.90
2008,11,24,05,38,2.90
2008,11,24,05,39,3.00
2008,11,24,05,40,3.10
2008,11,24,05,41,3.10
2008,11,24,05,42,3.10
2008,11,24,05,43,3.10
2008,11,24,05,44,3.10
2008,11,24,05,45,3.10
2008,11,24,05,46,3.10
2008,11,24,05,47,3.10
2008,11,24,05,48,3.10
2008,11,24,05,49,3.10
2008,11,24,05,50,3.10
2008,11,24,05,51,3.10
2008,11,24,05,52,3.10
2008,11,24,05,53,3.20
2008,11,24,05,54,3.20
2008,11,24,05,55,3.20
2008,11,24,05,56,3.20
2008,11,24,05,57,3.20
2008,11,24,05,58,3.20
2008,11,24,05,59,3.20
2008,11,24,06,00,3.30
2008,11,24,06,01,3.30
2008,11,24,06,02,3.30
2008,11,24,06,03,3.30
2008,11,24,06,04,3.30
2008,11,24,06,05,3.40
2008,11,24,06,06,3.40
2008,11,24,06,07,3.40
2008,11,24,06,08,3.50
2008,11,24,06,09,3.50
2008,11,24,06,10,3.50
2008,11,24,06,11,3.50
2008,11,24,06,12,3.50
2008,11,24,06,13,3.50
2008,11,24,06,14,3.50
2008,11,24,06,15,3.50
2008,11,24,06,16,3.50
2008,11,24,06,17,3.50
2008,11,24,06,18,3.50
2008,11,24,06,19,3.50
2008,11,24,06,20,3.50
2008,11,24,06,21,3.50
2008,11,24,06,22,3.50
2008,11,24,06,23,3.50
2008,11,24,06,24,3.50
2008,11,24,06,25,3.50
2008,11,24,06,26,3.50
2008,11,24,06,27,3.50
2008,11,24,06,28,3.50
2008,11,24,06,29,3.50
2008,11,24,06,30,3.40
2008,11,24,06,31,3.40
2008,11,24,06,32,3.40
2008,11,24,06,33,3.40
2008,11,24,06,34,3.40
2008,11,24,06,35,3.40
2008,11,24,06,36,3.40
2008,11,24,06,37,3.40
2008,11,24,06,38,3.40
2008,11,24,06,39,3.40
2008,11,24,06,40,3.40
2008,11,24,06,41,3.40
2008,11,24,06,42,3.40
2008,11,24,06,43,3.40
2008,11,24,06,44,3.40
2008,11,24,06,45,3.30
2008,11,24,06,46,3.30
2008,11,24,06,47,3.30
2008,11,24,06,48,3.30
2008,11,24,06,49,3.30
2008,11,24,06,50,3.30
2008,11,24,06,51,3.30
2008,11,24,06,52,3.30
2008,11,24,06,53,3.30
2008,11,24,06,54,3.20
2008,11,24,06,55,3.20
2008,11,24,06,56,3.20
2008,11,24,06,57,3.20
2008,11,24,06,58,3.20
2008,11,24,06,59,3.20
2008,11,24,07,00,3.20
2008,11,24,07,01,3.20
2008,11,24,07,02,3.20
2008,11,24,07,03,3.20
2008,11,24,07,04,3.20
2008,11,24,07,05,3.20
2008,11,24,07,06,3.20
2008,11,24,07,07,3.20
2008,11,24,07,08,3.20
2008,11,24,07,09,3.20
2008,11,24,07,10,3.20
2008,11,24,07,11,3.20
2008,11,24,07,12,3.20
2008,11,24,07,13,3.20
2008,11,24,07,14,3.20
2008,11,24,07,15,3.20
2008,11,24,07,16,3.20
2008,11,24,07,17,3.20
2008,11,24,07,18,3.20
2008,11,24,07,19,3.30
2008,11,24,07,20,3.30
2008,11,24,07,21,3.30
2008,11,24,07,22,3.30
2008,11,24,07,23,3.30
2008,11,24,07,24,3.40
2008,11,24,07,25,3.50
2008,11,24,07,26,3.50
2008,11,24,07,27,3.60
2008,11,24,07,28,3.60
2008,11,24,07,29,3.70
2008,11,24,07,30,3.70
2008,11,24,07,31,3.80
2008,11,24,07,32,3.90
2008,11,24,07,33,4.00
2008,11,24,07,34,4.00
2008,11,24,07,35,4.10
2008,11,24,07,36,4.20
2008,11,24,07,37,4.30
2008,11,24,07,38,4.40
2008,11,24,07,39,4.40
2008,11,24,07,40,4.50
2008,11,24,07,41,4.50
2008,11,24,07,42,4.50
2008,11,24,07,43,4.60
2008,11,24,07,44,4.60
2008,11,24,07,45,4.60
2008,11,24,07,46,4.60
2008,11,24,07,47,4.60
2008,11,24,07,48,4.60
2008,11,24,07,49,4.60
2008,11,24,07,50,4.70
2008,11,24,07,51,4.70
2008,11,24,07,52,4.80
2008,11,24,07,53,4.80
2008,11,24,07,54,4.80
2008,11,24,07,55,4.90
2008,11,24,07,56,4.90
2008,11,24,07,57,4.90
2008,11,24,07,58,4.90
2008,11,24,07,59,4.90
2008,11,24,08,00,4.80
2008,11,24,08,01,4.80
2008,11,24,08,02,4.80
2008,11,24,08,03,4.90
2008,11,24,08,04,4.90
2008,11,24,08,05,4.90
2008,11,24,08,06,4.90
2008,11,24,08,07,4.90
2008,11,24,08,08,4.90
2008,11,24,08,09,4.90
2008,11,24,08,10,4.90
2008,11,24,08,11,4.90
2008,11,24,08,12,4.90
2008,11,24,08,13,4.90
2008,11,24,08,14,4.90
2008,11,24,08,15,4.90
2008,11,24,08,16,4.90
2008,11,24,08,17,4.90
2008,11,24,08,18,4.90
2008,11,24,08,19,4.90
2008,11,24,08,20,4.90
2008,11,24,08,21,4.90
2008,11,24,08,22,4.90
2008,11,24,08,23,4.90
2008,11,24,08,24,4.90
2008,11,24,08,25,4.90
2008,11,24,08,26,4.90
2008,11,24,08,27,4.90
2008,11,24,08,28,5.00
2008,11,24,08,29,5.10
2008,11,24,08,30,5.10
2008,11,24,08,31,5.10
2008,11,24,08,32,5.10
2008,11,24,08,33,5.10
2008,11,24,08,34,5.20
2008,11,24,08,35,5.30
2008,11,24,08,36,5.30
2008,11,24,08,37,5.30
2008,11,24,08,38,5.40
2008,11,24,08,39,5.50
2008,11,24,08,40,5.50
2008,11,24,08,41,5.50
2008,11,24,08,42,5.50
2008,11,24,08,43,5.60
2008,11,24,08,44,5.60
2008,11,24,08,45,5.60
2008,11,24,08,46,5.60
2008,11,24,08,47,5.60
2008,11,24,08,48,5.60
2008,11,24,08,49,5.60
2008,11,24,08,50,5.70
2008,11,24,08,51,5.70
2008,11,24,08,52,5.70
2008,11,24,08,53,5.70
2008,11,24,08,54,5.70
2008,11,24,08,55,5.70
2008,11,24,08,56,5.70
2008,11,24,08,57,5.70
2008,11,24,08,58,5.80
2008,11,24,08,59,5.80
2008,11,24,09,00,5.80
2008,11,24,09,01,5.90
2008,11,24,09,02,5.90
2008,11,24,09,03,6.00
2008,11,24,09,04,6.00
2008,11,24,09,05,6.00
2008,11,24,09,06,6.10
2008,11,24,09,07,6.10
2008,11,24,09,08,6.20
2008,11,24,09,09,6.20
2008,11,24,09,10,6.20
2008,11,24,09,11,6.20
2008,11,24,09,12,6.30
2008,11,24,09,13,6.30
2008,11,24,09,14,6.40
2008,11,24,09,15,6.40
2008,11,24,09,16,6.50
2008,11,24,09,17,6.60
2008,11,24,09,18,6.60
2008,11,24,09,19,6.60
2008,11,24,09,20,6.60
2008,11,24,09,21,6.60
2008,11,24,09,22,6.70
2008,11,24,09,23,6.70
2008,11,24,09,24,6.80
2008,11,24,09,25,6.80
2008,11,24,09,26,6.80
2008,11,24,09,27,6.90
2008,11,24,09,28,7.00
2008,11,24,09,29,7.10
2008,11,24,09,30,7.10
2008,11,24,09,31,7.20
2008,11,24,09,32,7.30
2008,11,24,09,33,7.30
2008,11,24,09,34,7.30
2008,11,24,09,35,7.30
2008,11,24,09,36,7.40
2008,11,24,09,37,7.40
2008,11,24,09,38,7.40
2008,11,24,09,39,7.50
2008,11,24,09,40,7.50
2008,11,24,09,41,7.60
2008,11,24,09,42,7.70
2008,11,24,09,43,7.70
2008,11,24,09,44,7.80
2008,11,24,09,45,7.80
2008,11,24,09,46,7.80
2008,11,24,09,47,7.90
2008,11,24,09,48,7.90
2008,11,24,09,49,7.90
2008,11,24,09,50,7.90
2008,11,24,09,51,7.90
2008,11,24,09,52,8.00
2008,11,24,09,53,8.00
2008,11,24,09,54,8.10
2008,11,24,09,55,8.10
2008,11,24,09,56,8.10
2008,11,24,09,57,8.20
2008,11,24,09,58,8.20
2008,11,24,09,59,8.20
2008,11,24,10,00,8.20
2008,11,24,10,01,8.20
2008,11,24,10,02,8.20
2008,11,24,10,03,8.20
2008,11,24,10,04,8.20
2008,11,24,10,05,8.20
2008,11,24,10,06,8.20
2008,11,24,10,07,8.20
2008,11,24,10,08,8.20
2008,11,24,10,09,8.20
2008,11,24,10,10,8.20
2008,11,24,10,11,8.20
2008,11,24,10,12,8.20
2008,11,24,10,13,8.20
2008,11,24,10,14,8.20
2008,11,24,10,15,8.20
2008,11,24,10,16,8.20
2008,11,24,10,17,8.20
2008,11,24,10,18,8.20
2008,11,24,10,19,8.30
2008,11,24,10,20,8.30
2008,11,24,10,21,8.40
2008,11,24,10,22,8.40
2008,11,24,10,23,8.50
2008,11,24,10,24,8.60
2008,11,24,10,25,8.70
2008,11,24,10,26,8.70
2008,11,24,10,27,8.80
2008,11,24,10,28,8.90
2008,11,24,10,29,9.00
2008,11,24,10,30,9.10
2008,11,24,10,31,9.10
2008,11,24,10,32,9.10
2008,11,24,10,33,9.10
2008,11,24,10,34,9.20
2008,11,24,10,35,9.20
2008,11,24,10,36,9.20
2008,11,24,10,37,9.30
2008,11,24,10,38,9.30
2008,11,24,10,39,9.40
2008,11,24,10,40,9.50
2008,11,24,10,41,9.60
2008,11,24,10,42,9.70
2008,11,24,10,43,9.80
2008,11,24,10,44,9.80
2008,11,24,10,45,9.80
2008,11,24,10,46,9.80
2008,11,24,10,47,9.80
2008,11,24,10,48,9.80
2008,11,24,10,49,9.90
2008,11,24,10,50,9.90
2008,11,24,10,51,9.90
2008,11,24,10,52,10.00
2008,11,24,10,53,10.10
2008,11,24,10,54,10.20
2008,11,24,10,55,10.20
2008,11,24,10,56,10.20
2008,11,24,10,57,10.20
2008,11,24,10,58,10.20
2008,11,24,10,59,10.10
2008,11,24,11,00,10.00
2008,11,24,11,01,9.90
2008,11,24,11,02,9.90
2008,11,24,11,03,9.80
2008,11,24,11,04,9.80
2008,11,24,11,05,9.70
2008,11,24,11,06,9.70
2008,11,24,11,07,9.70
2008,11,24,11,08,9.60
2008,11,24,11,09,9.50
2008,11,24,11,10,9.50
2008,11,24,11,11,9.40
2008,11,24,11,12,9.40
2008,11,24,11,13,9.30
2008,11,24,11,14,9.20
2008,11,24,11,15,9.20
2008,11,24,11,16,9.10
2008,11,24,11,17,9.10
2008,11,24,11,18,9.00
2008,11,24,11,19,8.90
2008,11,24,11,20,8.90
2008,11,24,11,21,8.80
2008,11,24,11,22,8.80
2008,11,24,11,23,8.80
2008,11,24,11,24,8.80
2008,11,24,11,25,8.70
2008,11,24,11,26,8.70
2008,11,24,11,27,8.70
2008,11,24,11,28,8.70
2008,11,24,11,29,8.70
2008,11,24,11,30,8.70
2008,11,24,11,31,8.60
2008,11,24,11,32,8.60
2008,11,24,11,33,8.60
2008,11,24,11,34,8.60
2008,11,24,11,35,8.60
2008,11,24,11,36,8.50
2008,11,24,11,37,8.50
2008,11,24,11,38,8.50
2008,11,24,11,39,8.50
2008,11,24,11,40,8.50
2008,11,24,11,41,8.50
2008,11,24,11,42,8.50
2008,11,24,11,43,8.50
2008,11,24,11,44,8.50
2008,11,24,11,45,8.50
2008,11,24,11,46,8.50
2008,11,24,11,47,8.50
2008,11,24,11,48,8.50
2008,11,24,11,49,8.50
2008,11,24,11,50,8.50
2008,11,24,11,51,8.50
2008,11,24,11,52,8.50
2008,11,24,11,53,8.50
2008,11,24,11,54,8.50
2008,11,24,11,55,8.60
2008,11,24,11,56,8.60
2008,11,24,11,57,8.60
2008,11,24,11,58,8.60
2008,11,24,11,59,8.60
2008,11,24,12,00,8.60
2008,11,24,12,01,8.60
2008,11,24,12,02,8.60
2008,11,24,12,03,8.60
2008,11,24,12,04,8.60
2008,11,24,12,05,8.60
2008,11,24,12,06,8.60
2008,11,24,12,07,8.60
2008,11,24,12,08,8.60
2008,11,24,12,09,8.60
2008,11,24,12,10,8.60
2008,11,24,12,11,8.50
2008,11,24,12,12,8.50
2008,11,24,12,13,8.50
2008,11,24,12,14,8.50
2008,11,24,12,15,8.50
2008,11,24,12,16,8.60
2008,11,24,12,17,8.60
2008,11,24,12,18,8.60
2008,11,24,12,19,8.60
2008,11,24,12,20,8.60
2008,11,24,12,21,8.70
2008,11,24,12,22,8.70
2008,11,24,12,23,8.70
2008,11,24,12,24,8.70
2008,11,24,12,25,8.80
2008,11,24,12,26,8.90
2008,11,24,12,27,8.90
2008,11,24,12,28,9.00
2008,11,24,12,29,9.00
2008,11,24,12,30,9.10
2008,11,24,12,31,9.10
2008,11,24,12,32,9.20
2008,11,24,12,33,9.20
2008,11,24,12,34,9.30
2008,11,24,12,35,9.40
2008,11,24,12,36,9.40
2008,11,24,12,37,9.50
2008,11,24,12,38,9.60
2008,11,24,12,39,9.70
2008,11,24,12,40,9.70
2008,11,24,12,41,9.80
2008,11,24,12,42,9.80
2008,11,24,12,43,9.90
2008,11,24,12,44,9.90
2008,11,24,12,45,9.90
2008,11,24,12,46,9.90
2008,11,24,12,47,9.90
2008,11,24,12,48,9.90
2008,11,24,12,49,10.00
2008,11,24,12,50,10.10
2008,11,24,12,51,10.10
2008,11,24,12,52,10.10
2008,11,24,12,53,10.10
2008,11,24,12,54,10.10
2008,11,24,12,55,10.10
2008,11,24,12,56,10.10
2008,11,24,12,57,10.10
2008,11,24,12,58,10.10
2008,11,24,12,59,10.10
2008,11,24,13,00,10.10
2008,11,24,13,01,10.10
2008,11,24,13,02,10.10
2008,11,24,13,03,10.10
2008,11,24,13,04,10.10
2008,11,24,13,05,10.10
2008,11,24,13,06,10.10
2008,11,24,13,07,10.10
2008,11,24,13,08,10.10
2008,11,24,13,09,10.10
2008,11,24,13,10,10.20
2008,11,24,13,11,10.20
2008,11,24,13,12,10.20
2008,11,24,13,13,10.30
2008,11,24,13,14,10.30
2008,11,24,13,15,10.30
2008,11,24,13,16,10.40
2008,11,24,13,17,10.40
2008,11,24,13,18,10.40
2008,11,24,13,19,10.40
2008,11,24,13,20,10.40
2008,11,24,13,21,10.40
2008,11,24,13,22,10.50
2008,11,24,13,23,10.60
2008,11,24,13,24,10.60
2008,11,24,13,25,10.60
2008,11,24,13,26,10.60
2008,11,24,13,27,10.60
2008,11,24,13,28,10.60
2008,11,24,13,29,10.60
2008,11,24,13,30,10.70
2008,11,24,13,31,10.70
2008,11,24,13,32,10.70
2008,11,24,13,33,10.80
2008,11,24,13,34,10.80
2008,11,24,13,35,10.80
2008,11,24,13,36,10.90
2008,11,24,13,37,10.90
2008,11,24,13,38,10.90
2008,11,24,13,39,11.00
2008,11,24,13,40,11.10
2008,11,24,13,41,11.10
2008,11,24,13,42,11.10
2008,11,24,13,43,11.10
2008,11,24,13,44,11.10
2008,11,24,13,45,11.10
2008,11,24,13,46,11.10
2008,11,24,13,47,11.10
2008,11,24,13,48,11.20
2008,11,24,13,49,11.20
2008,11,24,13,50,11.20
2008,11,24,13,51,11.20
2008,11,24,13,52,11.20
2008,11,24,13,53,11.30
2008,11,24,13,54,11.30
2008,11,24,13,55,11.30
2008,11,24,13,56,11.30
2008,11,24,13,57,11.30
2008,11,24,13,58,11.30
2008,11,24,13,59,11.30
2008,11,24,14,00,11.20
2008,11,24,14,01,11.10
2008,11,24,14,02,11.10
2008,11,24,14,03,11.00
2008,11,24,14,04,10.90
2008,11,24,14,05,10.90
2008,11,24,14,06,10.90
2008,11,24,14,07,10.80
2008,11,24,14,08,10.80
2008,11,24,14,09,10.70
2008,11,24,14,10,10.70
2008,11,24,14,11,10.70
2008,11,24,14,12,10.60
2008,11,24,14,13,10.60
2008,11,24,14,14,10.60
2008,11,24,14,15,10.60
2008,11,24,14,16,10.60
2008,11,24,14,17,10.60
2008,11,24,14,18,10.60
2008,11,24,14,19,10.60
2008,11,24,14,20,10.60
2008,11,24,14,21,10.60
2008,11,24,14,22,10.60
2008,11,24,14,23,10.60
2008,11,24,14,24,10.70
2008,11,24,14,25,10.70
2008,11,24,14,26,10.80
2008,11,24,14,27,10.80
2008,11,24,14,28,10.90
2008,11,24,14,29,10.90
2008,11,24,14,30,10.90
2008,11,24,14,31,10.90
2008,11,24,14,32,10.90
2008,11,24,14,33,10.90
2008,11,24,14,34,10.90
2008,11,24,14,35,10.90
2008,11,24,14,36,10.90
2008,11,24,14,37,10.80
2008,11,24,14,38,10.80
2008,11,24,14,39,10.80
2008,11,24,14,40,10.70
2008,11,24,14,41,10.70
2008,11,24,14,42,10.70
2008,11,24,14,43,10.70
2008,11,24,14,44,10.60
2008,11,24,14,45,10.70
2008,11,24,14,46,10.70
2008,11,24,14,47,10.70
2008,11,24,14,48,10.70
2008,11,24,14,49,10.80
2008,11,24,14,50,10.80
2008,11,24,14,51,10.80
2008,11,24,14,52,10.80
2008,11,24,14,53,10.70
2008,11,24,14,54,10.70
2008,11,24,14,55,10.70
2008,11,24,14,56,10.70
2008,11,24,14,57,10.60
2008,11,24,14,58,10.60
2008,11,24,14,59,10.60
2008,11,24,15,00,10.60
2008,11,24,15,01,10.60
2008,11,24,15,02,10.60
2008,11,24,15,03,10.60
2008,11,24,15,04,10.60
2008,11,24,15,05,10.60
2008,11,24,15,06,10.50
2008,11,24,15,07,10.40
2008,11,24,15,08,10.40
2008,11,24,15,09,10.30
2008,11,24,15,10,10.20
2008,11,24,15,11,10.20
2008,11,24,15,12,10.10
2008,11,24,15,13,10.10
2008,11,24,15,14,10.00
2008,11,24,15,15,9.90
2008,11,24,15,16,9.90
2008,11,24,15,17,9.90
2008,11,24,15,18,9.90
2008,11,24,15,19,9.80
2008,11,24,15,20,9.80
2008,11,24,15,21,9.70
2008,11,24,15,22,9.70
2008,11,24,15,23,9.70
2008,11,24,15,24,9.70
2008,11,24,15,25,9.70
2008,11,24,15,26,9.70
2008,11,24,15,27,9.60
2008,11,24,15,28,9.60
2008,11,24,15,29,9.60
2008,11,24,15,30,9.50
2008,11,24,15,31,9.50
2008,11,24,15,32,9.50
2008,11,24,15,33,9.40
2008,11,24,15,34,9.40
2008,11,24,15,35,9.30
2008,11,24,15,36,9.30
2008,11,24,15,37,9.30
2008,11,24,15,38,9.20
2008,11,24,15,39,9.20
2008,11,24,15,40,9.20
2008,11,24,15,41,9.20
2008,11,24,15,42,9.20
2008,11,24,15,43,9.20
2008,11,24,15,44,9.20
2008,11,24,15,45,9.20
2008,11,24,15,46,9.20
2008,11,24,15,47,9.10
2008,11,24,15,48,9.10
2008,11,24,15,49,9.10
2008,11,24,15,50,9.10
2008,11,24,15,51,9.00
2008,11,24,15,52,9.00
2008,11,24,15,53,9.00
2008,11,24,15,54,8.90
2008,11,24,15,55,8.90
2008,11,24,15,56,8.80
2008,11,24,15,57,8.80
2008,11,24,15,58,8.70
2008,11,24,15,59,8.70
2008,11,24,16,00,8.70
2008,11,24,16,01,8.60
2008,11,24,16,02,8.60
2008,11,24,16,03,8.50
2008,11,24,16,04,8.50
2008,11,24,16,05,8.50
2008,11,24,16,06,8.40
2008,11,24,16,07,8.40
2008,11,24,16,08,8.30
2008,11,24,16,09,8.30
2008,11,24,16,10,8.20
2008,11,24,16,11,8.20
2008,11,24,16,12,8.20
2008,11,24,16,13,8.20
2008,11,24,16,14,8.20
2008,11,24,16,15,8.10
2008,11,24,16,16,8.10
2008,11,24,16,17,8.00
2008,11,24,16,18,8.00
2008,11,24,16,19,8.00
2008,11,24,16,20,8.00
2008,11,24,16,21,8.00
2008,11,24,16,22,8.00
2008,11,24,16,23,8.00
2008,11,24,16,24,7.90
2008,11,24,16,25,7.90
2008,11,24,16,26,7.90
2008,11,24,16,27,7.90
2008,11,24,16,28,7.80
2008,11,24,16,29,7.80
2008,11,24,16,30,7.80
2008,11,24,16,31,7.80
2008,11,24,16,32,7.80
2008,11,24,16,33,7.80
2008,11,24,16,34,7.70
2008,11,24,16,35,7.70
2008,11,24,16,36,7.60
2008,11,24,16,37,7.60
2008,11,24,16,38,7.50
2008,11,24,16,39,7.50
2008,11,24,16,40,7.50
2008,11,24,16,41,7.40
2008,11,24,16,42,7.40
2008,11,24,16,43,7.30
2008,11,24,16,44,7.30
2008,11,24,16,45,7.30
2008,11,24,16,46,7.30
2008,11,24,16,47,7.30
2008,11,24,16,48,7.30
2008,11,24,16,49,7.20
2008,11,24,16,50,7.20
2008,11,24,16,51,7.20
2008,11,24,16,52,7.10
2008,11,24,16,53,7.10
2008,11,24,16,54,7.10
2008,11,24,16,55,7.00
2008,11,24,16,56,7.00
2008,11,24,16,57,7.00
2008,11,24,16,58,6.90
2008,11,24,16,59,6.90
2008,11,24,17,00,6.80
2008,11,24,17,01,6.80
2008,11,24,17,02,6.80
2008,11,24,17,03,6.80
2008,11,24,17,04,6.80
2008,11,24,17,05,6.70
2008,11,24,17,06,6.70
2008,11,24,17,07,6.70
2008,11,24,17,08,6.60
2008,11,24,17,09,6.60
2008,11,24,17,10,6.60
2008,11,24,17,11,6.60
2008,11,24,17,12,6.60
2008,11,24,17,13,6.60
2008,11,24,17,14,6.60
2008,11,24,17,15,6.60
2008,11,24,17,16,6.60
2008,11,24,17,17,6.60
2008,11,24,17,18,6.60
2008,11,24,17,19,6.60
2008,11,24,17,20,6.60
2008,11,24,17,21,6.60
2008,11,24,17,22,6.60
2008,11,24,17,23,6.60
2008,11,24,17,24,6.60
2008,11,24,17,25,6.60
2008,11,24,17,26,6.60
2008,11,24,17,27,6.50
2008,11,24,17,28,6.40
2008,11,24,17,29,6.40
2008,11,24,17,30,6.40
2008,11,24,17,31,6.40
2008,11,24,17,32,6.40
2008,11,24,17,33,6.40
2008,11,24,17,34,6.30
2008,11,24,17,35,6.30
2008,11,24,17,36,6.20
2008,11,24,17,37,6.20
2008,11,24,17,38,6.20
2008,11,24,17,39,6.20
2008,11,24,17,40,6.10
2008,11,24,17,41,6.10
2008,11,24,17,42,6.00
2008,11,24,17,43,6.00
2008,11,24,17,44,6.00
2008,11,24,17,45,5.90
2008,11,24,17,46,5.90
2008,11,24,17,47,5.90
2008,11,24,17,48,5.80
2008,11,24,17,49,5.80
2008,11,24,17,50,5.70
2008,11,24,17,51,5.70
2008,11,24,17,52,5.70
2008,11,24,17,53,5.60
2008,11,24,17,54,5.60
2008,11,24,17,55,5.60
2008,11,24,17,56,5.50
2008,11,24,17,57,5.50
2008,11,24,17,58,5.40
2008,11,24,17,59,5.30
2008,11,24,18,00,5.30
2008,11,24,18,01,5.30
2008,11,24,18,02,5.30
2008,11,24,18,03,5.30
2008,11,24,18,04,5.20
2008,11,24,18,05,5.20
2008,11,24,18,06,5.20
2008,11,24,18,07,5.20
2008,11,24,18,08,5.20
2008,11,24,18,09,5.20
2008,11,24,18,10,5.30
2008,11,24,18,11,5.30
2008,11,24,18,12,5.30
2008,11,24,18,13,5.30
2008,11,24,18,14,5.30
2008,11,24,18,15,5.30
2008,11,24,18,16,5.30
2008,11,24,18,17,5.30
2008,11,24,18,18,5.40
2008,11,24,18,19,5.40
2008,11,24,18,20,5.50
2008,11,24,18,21,5.50
2008,11,24,18,22,5.50
2008,11,24,18,23,5.60
2008,11,24,18,24,5.60
2008,11,24,18,25,5.60
2008,11,24,18,26,5.60
2008,11,24,18,27,5.60
2008,11,24,18,28,5.60
2008,11,24,18,29,5.60
2008,11,24,18,30,5.60
2008,11,24,18,31,5.60
2008,11,24,18,32,5.60
2008,11,24,18,33,5.60
2008,11,24,18,34,5.60
2008,11,24,18,35,5.60
2008,11,24,18,36,5.60
2008,11,24,18,37,5.60
2008,11,24,18,38,5.60
2008,11,24,18,39,5.70
2008,11,24,18,40,5.70
2008,11,24,18,41,5.60
2008,11,24,18,42,5.60
2008,11,24,18,43,5.60
2008,11,24,18,44,5.60
2008,11,24,18,45,5.50
2008,11,24,18,46,5.50
2008,11,24,18,47,5.50